Index of /20260430/WXO-DD/model_gdps/15km/00/000
Name Last modified Size Description
Parent Directory -
20260430T00Z_MSC_GDPS_AbsoluteVorticity_IsbL-0200_LatLon0.15_PT000H.grib2 2026-04-30 03:55 1.2M
20260430T00Z_MSC_GDPS_AbsoluteVorticity_IsbL-0250_LatLon0.15_PT000H.grib2 2026-04-30 03:55 1.3M
20260430T00Z_MSC_GDPS_AbsoluteVorticity_IsbL-0500_LatLon0.15_PT000H.grib2 2026-04-30 03:55 1.5M
20260430T00Z_MSC_GDPS_AbsoluteVorticity_IsbL-0700_LatLon0.15_PT000H.grib2 2026-04-30 03:55 1.3M
20260430T00Z_MSC_GDPS_AbsoluteVorticity_IsbL-0850_LatLon0.15_PT000H.grib2 2026-04-30 03:55 1.6M
20260430T00Z_MSC_GDPS_AirTemp_AGL-120m_LatLon0.15_PT000H.grib2 2026-04-30 03:55 904K
20260430T00Z_MSC_GDPS_AirTemp_AGL-2m_LatLon0.15_PT000H.grib2 2026-04-30 03:55 1.0M
20260430T00Z_MSC_GDPS_AirTemp_AGL-40m_LatLon0.15_PT000H.grib2 2026-04-30 03:55 806K
20260430T00Z_MSC_GDPS_AirTemp_AGL-80m_LatLon0.15_PT000H.grib2 2026-04-30 03:55 913K
20260430T00Z_MSC_GDPS_AirTemp_IsbL-0001_LatLon0.15_PT000H.grib2 2026-04-30 03:55 665K
20260430T00Z_MSC_GDPS_AirTemp_IsbL-0005_LatLon0.15_PT000H.grib2 2026-04-30 03:55 692K
20260430T00Z_MSC_GDPS_AirTemp_IsbL-0010_LatLon0.15_PT000H.grib2 2026-04-30 03:55 767K
20260430T00Z_MSC_GDPS_AirTemp_IsbL-0020_LatLon0.15_PT000H.grib2 2026-04-30 03:55 789K
20260430T00Z_MSC_GDPS_AirTemp_IsbL-0030_LatLon0.15_PT000H.grib2 2026-04-30 03:55 756K
20260430T00Z_MSC_GDPS_AirTemp_IsbL-0050_LatLon0.15_PT000H.grib2 2026-04-30 03:55 811K
20260430T00Z_MSC_GDPS_AirTemp_IsbL-0100_LatLon0.15_PT000H.grib2 2026-04-30 03:55 955K
20260430T00Z_MSC_GDPS_AirTemp_IsbL-0150_LatLon0.15_PT000H.grib2 2026-04-30 03:55 1.0M
20260430T00Z_MSC_GDPS_AirTemp_IsbL-0175_LatLon0.15_PT000H.grib2 2026-04-30 03:55 963K
20260430T00Z_MSC_GDPS_AirTemp_IsbL-0200_LatLon0.15_PT000H.grib2 2026-04-30 03:55 973K
20260430T00Z_MSC_GDPS_AirTemp_IsbL-0225_LatLon0.15_PT000H.grib2 2026-04-30 03:55 1.0M
20260430T00Z_MSC_GDPS_AirTemp_IsbL-0250_LatLon0.15_PT000H.grib2 2026-04-30 03:55 1.0M
20260430T00Z_MSC_GDPS_AirTemp_IsbL-0275_LatLon0.15_PT000H.grib2 2026-04-30 03:55 1.0M
20260430T00Z_MSC_GDPS_AirTemp_IsbL-0300_LatLon0.15_PT000H.grib2 2026-04-30 03:55 1.0M
20260430T00Z_MSC_GDPS_AirTemp_IsbL-0350_LatLon0.15_PT000H.grib2 2026-04-30 03:55 937K
20260430T00Z_MSC_GDPS_AirTemp_IsbL-0400_LatLon0.15_PT000H.grib2 2026-04-30 03:55 949K
20260430T00Z_MSC_GDPS_AirTemp_IsbL-0450_LatLon0.15_PT000H.grib2 2026-04-30 03:55 971K
20260430T00Z_MSC_GDPS_AirTemp_IsbL-0500_LatLon0.15_PT000H.grib2 2026-04-30 03:55 1.0M
20260430T00Z_MSC_GDPS_AirTemp_IsbL-0550_LatLon0.15_PT000H.grib2 2026-04-30 03:55 812K
20260430T00Z_MSC_GDPS_AirTemp_IsbL-0600_LatLon0.15_PT000H.grib2 2026-04-30 03:55 904K
20260430T00Z_MSC_GDPS_AirTemp_IsbL-0650_LatLon0.15_PT000H.grib2 2026-04-30 03:55 932K
20260430T00Z_MSC_GDPS_AirTemp_IsbL-0700_LatLon0.15_PT000H.grib2 2026-04-30 03:55 960K
20260430T00Z_MSC_GDPS_AirTemp_IsbL-0750_LatLon0.15_PT000H.grib2 2026-04-30 03:55 1.0M
20260430T00Z_MSC_GDPS_AirTemp_IsbL-0800_LatLon0.15_PT000H.grib2 2026-04-30 03:55 1.1M
20260430T00Z_MSC_GDPS_AirTemp_IsbL-0850_LatLon0.15_PT000H.grib2 2026-04-30 03:55 1.1M
20260430T00Z_MSC_GDPS_AirTemp_IsbL-0875_LatLon0.15_PT000H.grib2 2026-04-30 03:55 1.2M
20260430T00Z_MSC_GDPS_AirTemp_IsbL-0900_LatLon0.15_PT000H.grib2 2026-04-30 03:55 1.1M
20260430T00Z_MSC_GDPS_AirTemp_IsbL-0925_LatLon0.15_PT000H.grib2 2026-04-30 03:55 1.1M
20260430T00Z_MSC_GDPS_AirTemp_IsbL-0950_LatLon0.15_PT000H.grib2 2026-04-30 03:55 1.1M
20260430T00Z_MSC_GDPS_AirTemp_IsbL-0970_LatLon0.15_PT000H.grib2 2026-04-30 03:55 1.2M
20260430T00Z_MSC_GDPS_AirTemp_IsbL-0985_LatLon0.15_PT000H.grib2 2026-04-30 03:55 1.1M
20260430T00Z_MSC_GDPS_AirTemp_IsbL-1000_LatLon0.15_PT000H.grib2 2026-04-30 03:55 1.1M
20260430T00Z_MSC_GDPS_AirTemp_IsbL-1015_LatLon0.15_PT000H.grib2 2026-04-30 03:55 1.1M
20260430T00Z_MSC_GDPS_Albedo_Sfc_LatLon0.15_PT000H.grib2 2026-04-30 03:55 246K
20260430T00Z_MSC_GDPS_CAPE_Sfc_LatLon0.15_PT000H.grib2 2026-04-30 03:55 3.9M
20260430T00Z_MSC_GDPS_CIN_Sfc_LatLon0.15_PT000H.grib2 2026-04-30 03:55 2.9M
20260430T00Z_MSC_GDPS_CloudWater_EAtm_LatLon0.15_PT000H.grib2 2026-04-30 03:55 524K
20260430T00Z_MSC_GDPS_ConvectivePrecip-Accum_Sfc_LatLon0.15_PT000H.grib2 2026-04-30 03:55 205
20260430T00Z_MSC_GDPS_DewPointDepression_AGL-2m_LatLon0.15_PT000H.grib2 2026-04-30 03:55 811K
20260430T00Z_MSC_GDPS_DewPointDepression_IsbL-0010_LatLon0.15_PT000H.grib2 2026-04-30 03:55 56K
20260430T00Z_MSC_GDPS_DewPointDepression_IsbL-0020_LatLon0.15_PT000H.grib2 2026-04-30 03:55 67K
20260430T00Z_MSC_GDPS_DewPointDepression_IsbL-0030_LatLon0.15_PT000H.grib2 2026-04-30 03:55 72K
20260430T00Z_MSC_GDPS_DewPointDepression_IsbL-0050_LatLon0.15_PT000H.grib2 2026-04-30 03:55 370K
20260430T00Z_MSC_GDPS_DewPointDepression_IsbL-0100_LatLon0.15_PT000H.grib2 2026-04-30 03:55 421K
20260430T00Z_MSC_GDPS_DewPointDepression_IsbL-0150_LatLon0.15_PT000H.grib2 2026-04-30 03:55 472K
20260430T00Z_MSC_GDPS_DewPointDepression_IsbL-0175_LatLon0.15_PT000H.grib2 2026-04-30 03:55 565K
20260430T00Z_MSC_GDPS_DewPointDepression_IsbL-0200_LatLon0.15_PT000H.grib2 2026-04-30 03:55 686K
20260430T00Z_MSC_GDPS_DewPointDepression_IsbL-0225_LatLon0.15_PT000H.grib2 2026-04-30 03:55 807K
20260430T00Z_MSC_GDPS_DewPointDepression_IsbL-0250_LatLon0.15_PT000H.grib2 2026-04-30 03:55 893K
20260430T00Z_MSC_GDPS_DewPointDepression_IsbL-0275_LatLon0.15_PT000H.grib2 2026-04-30 03:55 901K
20260430T00Z_MSC_GDPS_DewPointDepression_IsbL-0300_LatLon0.15_PT000H.grib2 2026-04-30 03:55 938K
20260430T00Z_MSC_GDPS_DewPointDepression_IsbL-0350_LatLon0.15_PT000H.grib2 2026-04-30 03:55 966K
20260430T00Z_MSC_GDPS_DewPointDepression_IsbL-0400_LatLon0.15_PT000H.grib2 2026-04-30 03:55 1.0M
20260430T00Z_MSC_GDPS_DewPointDepression_IsbL-0450_LatLon0.15_PT000H.grib2 2026-04-30 03:55 1.0M
20260430T00Z_MSC_GDPS_DewPointDepression_IsbL-0500_LatLon0.15_PT000H.grib2 2026-04-30 03:55 1.0M
20260430T00Z_MSC_GDPS_DewPointDepression_IsbL-0550_LatLon0.15_PT000H.grib2 2026-04-30 03:55 1.0M
20260430T00Z_MSC_GDPS_DewPointDepression_IsbL-0600_LatLon0.15_PT000H.grib2 2026-04-30 03:55 1.0M
20260430T00Z_MSC_GDPS_DewPointDepression_IsbL-0650_LatLon0.15_PT000H.grib2 2026-04-30 03:55 1.0M
20260430T00Z_MSC_GDPS_DewPointDepression_IsbL-0700_LatLon0.15_PT000H.grib2 2026-04-30 03:55 1.1M
20260430T00Z_MSC_GDPS_DewPointDepression_IsbL-0750_LatLon0.15_PT000H.grib2 2026-04-30 03:55 1.1M
20260430T00Z_MSC_GDPS_DewPointDepression_IsbL-0800_LatLon0.15_PT000H.grib2 2026-04-30 03:55 1.1M
20260430T00Z_MSC_GDPS_DewPointDepression_IsbL-0850_LatLon0.15_PT000H.grib2 2026-04-30 03:55 1.1M
20260430T00Z_MSC_GDPS_DewPointDepression_IsbL-0875_LatLon0.15_PT000H.grib2 2026-04-30 03:55 1.1M
20260430T00Z_MSC_GDPS_DewPointDepression_IsbL-0900_LatLon0.15_PT000H.grib2 2026-04-30 03:55 1.1M
20260430T00Z_MSC_GDPS_DewPointDepression_IsbL-0925_LatLon0.15_PT000H.grib2 2026-04-30 03:55 1.0M
20260430T00Z_MSC_GDPS_DewPointDepression_IsbL-0950_LatLon0.15_PT000H.grib2 2026-04-30 03:55 1.0M
20260430T00Z_MSC_GDPS_DewPointDepression_IsbL-0970_LatLon0.15_PT000H.grib2 2026-04-30 03:55 1.0M
20260430T00Z_MSC_GDPS_DewPointDepression_IsbL-0985_LatLon0.15_PT000H.grib2 2026-04-30 03:55 1.0M
20260430T00Z_MSC_GDPS_DewPointDepression_IsbL-1000_LatLon0.15_PT000H.grib2 2026-04-30 03:55 969K
20260430T00Z_MSC_GDPS_DewPointDepression_IsbL-1015_LatLon0.15_PT000H.grib2 2026-04-30 03:55 941K
20260430T00Z_MSC_GDPS_DewPoint_AGL-2m_LatLon0.15_PT000H.grib2 2026-04-30 03:55 628K
20260430T00Z_MSC_GDPS_DownwardLongwaveRadiationFlux-Accum_Sfc_LatLon0.15_PT000H.grib2 2026-04-30 03:55 205
20260430T00Z_MSC_GDPS_DownwardShortwaveRadiationFlux-Accum_NTAtm_LatLon0.15_PT000H.grib2 2026-04-30 03:55 205
20260430T00Z_MSC_GDPS_DownwardShortwaveRadiationFlux-Accum_Sfc_LatLon0.15_PT000H.grib2 2026-04-30 03:55 205
20260430T00Z_MSC_GDPS_GeopotentialHeight_IsbL-0001_LatLon0.15_PT000H.grib2 2026-04-30 03:55 464K
20260430T00Z_MSC_GDPS_GeopotentialHeight_IsbL-0005_LatLon0.15_PT000H.grib2 2026-04-30 03:55 517K
20260430T00Z_MSC_GDPS_GeopotentialHeight_IsbL-0010_LatLon0.15_PT000H.grib2 2026-04-30 03:55 504K
20260430T00Z_MSC_GDPS_GeopotentialHeight_IsbL-0020_LatLon0.15_PT000H.grib2 2026-04-30 03:55 440K
20260430T00Z_MSC_GDPS_GeopotentialHeight_IsbL-0030_LatLon0.15_PT000H.grib2 2026-04-30 03:55 601K
20260430T00Z_MSC_GDPS_GeopotentialHeight_IsbL-0050_LatLon0.15_PT000H.grib2 2026-04-30 03:55 602K
20260430T00Z_MSC_GDPS_GeopotentialHeight_IsbL-0100_LatLon0.15_PT000H.grib2 2026-04-30 03:55 629K
20260430T00Z_MSC_GDPS_GeopotentialHeight_IsbL-0150_LatLon0.15_PT000H.grib2 2026-04-30 03:55 647K
20260430T00Z_MSC_GDPS_GeopotentialHeight_IsbL-0175_LatLon0.15_PT000H.grib2 2026-04-30 03:55 652K
20260430T00Z_MSC_GDPS_GeopotentialHeight_IsbL-0200_LatLon0.15_PT000H.grib2 2026-04-30 03:55 656K
20260430T00Z_MSC_GDPS_GeopotentialHeight_IsbL-0225_LatLon0.15_PT000H.grib2 2026-04-30 03:55 658K
20260430T00Z_MSC_GDPS_GeopotentialHeight_IsbL-0250_LatLon0.15_PT000H.grib2 2026-04-30 03:55 660K
20260430T00Z_MSC_GDPS_GeopotentialHeight_IsbL-0275_LatLon0.15_PT000H.grib2 2026-04-30 03:55 659K
20260430T00Z_MSC_GDPS_GeopotentialHeight_IsbL-0300_LatLon0.15_PT000H.grib2 2026-04-30 03:55 660K
20260430T00Z_MSC_GDPS_GeopotentialHeight_IsbL-0350_LatLon0.15_PT000H.grib2 2026-04-30 03:55 653K
20260430T00Z_MSC_GDPS_GeopotentialHeight_IsbL-0400_LatLon0.15_PT000H.grib2 2026-04-30 03:55 645K
20260430T00Z_MSC_GDPS_GeopotentialHeight_IsbL-0450_LatLon0.15_PT000H.grib2 2026-04-30 03:55 636K
20260430T00Z_MSC_GDPS_GeopotentialHeight_IsbL-0500_LatLon0.15_PT000H.grib2 2026-04-30 03:55 626K
20260430T00Z_MSC_GDPS_GeopotentialHeight_IsbL-0550_LatLon0.15_PT000H.grib2 2026-04-30 03:55 550K
20260430T00Z_MSC_GDPS_GeopotentialHeight_IsbL-0600_LatLon0.15_PT000H.grib2 2026-04-30 03:55 544K
20260430T00Z_MSC_GDPS_GeopotentialHeight_IsbL-0650_LatLon0.15_PT000H.grib2 2026-04-30 03:55 713K
20260430T00Z_MSC_GDPS_GeopotentialHeight_IsbL-0700_LatLon0.15_PT000H.grib2 2026-04-30 03:55 706K
20260430T00Z_MSC_GDPS_GeopotentialHeight_IsbL-0750_LatLon0.15_PT000H.grib2 2026-04-30 03:55 711K
20260430T00Z_MSC_GDPS_GeopotentialHeight_IsbL-0800_LatLon0.15_PT000H.grib2 2026-04-30 03:55 717K
20260430T00Z_MSC_GDPS_GeopotentialHeight_IsbL-0850_LatLon0.15_PT000H.grib2 2026-04-30 03:55 718K
20260430T00Z_MSC_GDPS_GeopotentialHeight_IsbL-0875_LatLon0.15_PT000H.grib2 2026-04-30 03:55 720K
20260430T00Z_MSC_GDPS_GeopotentialHeight_IsbL-0900_LatLon0.15_PT000H.grib2 2026-04-30 03:55 726K
20260430T00Z_MSC_GDPS_GeopotentialHeight_IsbL-0925_LatLon0.15_PT000H.grib2 2026-04-30 03:55 731K
20260430T00Z_MSC_GDPS_GeopotentialHeight_IsbL-0950_LatLon0.15_PT000H.grib2 2026-04-30 03:55 738K
20260430T00Z_MSC_GDPS_GeopotentialHeight_IsbL-0970_LatLon0.15_PT000H.grib2 2026-04-30 03:55 752K
20260430T00Z_MSC_GDPS_GeopotentialHeight_IsbL-0985_LatLon0.15_PT000H.grib2 2026-04-30 03:55 767K
20260430T00Z_MSC_GDPS_GeopotentialHeight_IsbL-1000_LatLon0.15_PT000H.grib2 2026-04-30 03:55 788K
20260430T00Z_MSC_GDPS_GeopotentialHeight_IsbL-1015_LatLon0.15_PT000H.grib2 2026-04-30 03:55 807K
20260430T00Z_MSC_GDPS_GeopotentialHeight_Sfc_LatLon0.15_PT000H.grib2 2026-04-30 03:55 707K
20260430T00Z_MSC_GDPS_Humidex_Sfc_LatLon0.15_PT000H.grib2 2026-04-30 03:55 5.4M
20260430T00Z_MSC_GDPS_KIndex_Sfc_LatLon0.15_PT000H.grib2 2026-04-30 03:55 6.5M
20260430T00Z_MSC_GDPS_LandWaterProportion_Sfc_LatLon0.15_PT000H.grib2 2026-04-30 03:55 239K
20260430T00Z_MSC_GDPS_LatentHeatNetFlux_Sfc_LatLon0.15_PT000H.grib2 2026-04-30 03:55 705K
20260430T00Z_MSC_GDPS_LiftedIndex-MU-VT_IsbL-0500_LatLon0.15_PT000H.grib2 2026-04-30 03:55 5.4M
20260430T00Z_MSC_GDPS_NetLongwaveRadiationFlux-Accum_Sfc_LatLon0.15_PT000H.grib2 2026-04-30 03:55 205
20260430T00Z_MSC_GDPS_NetShortwaveRadiationFlux-Accum_Sfc_LatLon0.15_PT000H.grib2 2026-04-30 03:55 205
20260430T00Z_MSC_GDPS_O3MixingRatio_Sfc_LatLon0.15_PT000H.grib2 2026-04-30 04:49 2.1M
20260430T00Z_MSC_GDPS_O3_EAtm_LatLon0.15_PT000H.grib2 2026-04-30 04:49 2.5M
20260430T00Z_MSC_GDPS_PlanetaryBoundaryLayerHeight_Sfc_LatLon0.15_PT000H.grib2 2026-04-30 03:55 2.4M
20260430T00Z_MSC_GDPS_PrecipType-Instant_Sfc_LatLon0.15_PT000H.grib2 2026-04-30 03:55 181
20260430T00Z_MSC_GDPS_Pressure_MSL_LatLon0.15_PT000H.grib2 2026-04-30 03:55 721K
20260430T00Z_MSC_GDPS_Pressure_PVU-1.5_LatLon0.15_PT000H.grib2 2026-04-30 03:55 5.8M
20260430T00Z_MSC_GDPS_Pressure_PVU-1_LatLon0.15_PT000H.grib2 2026-04-30 03:55 6.0M
20260430T00Z_MSC_GDPS_Pressure_PVU-2_LatLon0.15_PT000H.grib2 2026-04-30 03:55 5.6M
20260430T00Z_MSC_GDPS_Pressure_Sfc_LatLon0.15_PT000H.grib2 2026-04-30 03:55 1.1M
20260430T00Z_MSC_GDPS_RadiativeTemp_Sfc_LatLon0.15_PT000H.grib2 2026-04-30 03:55 629K
20260430T00Z_MSC_GDPS_RelativeHumidity_AGL-2m_LatLon0.15_PT000H.grib2 2026-04-30 03:55 1.1M
20260430T00Z_MSC_GDPS_RelativeHumidity_IsbL-0010_LatLon0.15_PT000H.grib2 2026-04-30 03:55 205K
20260430T00Z_MSC_GDPS_RelativeHumidity_IsbL-0020_LatLon0.15_PT000H.grib2 2026-04-30 03:55 255K
20260430T00Z_MSC_GDPS_RelativeHumidity_IsbL-0030_LatLon0.15_PT000H.grib2 2026-04-30 03:55 276K
20260430T00Z_MSC_GDPS_RelativeHumidity_IsbL-0050_LatLon0.15_PT000H.grib2 2026-04-30 03:55 423K
20260430T00Z_MSC_GDPS_RelativeHumidity_IsbL-0100_LatLon0.15_PT000H.grib2 2026-04-30 03:55 520K
20260430T00Z_MSC_GDPS_RelativeHumidity_IsbL-0150_LatLon0.15_PT000H.grib2 2026-04-30 03:55 665K
20260430T00Z_MSC_GDPS_RelativeHumidity_IsbL-0175_LatLon0.15_PT000H.grib2 2026-04-30 03:55 778K
20260430T00Z_MSC_GDPS_RelativeHumidity_IsbL-0200_LatLon0.15_PT000H.grib2 2026-04-30 03:55 693K
20260430T00Z_MSC_GDPS_RelativeHumidity_IsbL-0225_LatLon0.15_PT000H.grib2 2026-04-30 03:55 784K
20260430T00Z_MSC_GDPS_RelativeHumidity_IsbL-0250_LatLon0.15_PT000H.grib2 2026-04-30 03:55 862K
20260430T00Z_MSC_GDPS_RelativeHumidity_IsbL-0275_LatLon0.15_PT000H.grib2 2026-04-30 03:55 882K
20260430T00Z_MSC_GDPS_RelativeHumidity_IsbL-0300_LatLon0.15_PT000H.grib2 2026-04-30 03:55 926K
20260430T00Z_MSC_GDPS_RelativeHumidity_IsbL-0350_LatLon0.15_PT000H.grib2 2026-04-30 03:55 952K
20260430T00Z_MSC_GDPS_RelativeHumidity_IsbL-0400_LatLon0.15_PT000H.grib2 2026-04-30 03:55 1.0M
20260430T00Z_MSC_GDPS_RelativeHumidity_IsbL-0450_LatLon0.15_PT000H.grib2 2026-04-30 03:55 1.0M
20260430T00Z_MSC_GDPS_RelativeHumidity_IsbL-0500_LatLon0.15_PT000H.grib2 2026-04-30 03:55 1.0M
20260430T00Z_MSC_GDPS_RelativeHumidity_IsbL-0550_LatLon0.15_PT000H.grib2 2026-04-30 03:55 1.1M
20260430T00Z_MSC_GDPS_RelativeHumidity_IsbL-0600_LatLon0.15_PT000H.grib2 2026-04-30 03:55 1.1M
20260430T00Z_MSC_GDPS_RelativeHumidity_IsbL-0650_LatLon0.15_PT000H.grib2 2026-04-30 03:55 1.1M
20260430T00Z_MSC_GDPS_RelativeHumidity_IsbL-0700_LatLon0.15_PT000H.grib2 2026-04-30 03:55 1.1M
20260430T00Z_MSC_GDPS_RelativeHumidity_IsbL-0750_LatLon0.15_PT000H.grib2 2026-04-30 03:55 1.2M
20260430T00Z_MSC_GDPS_RelativeHumidity_IsbL-0800_LatLon0.15_PT000H.grib2 2026-04-30 03:55 1.2M
20260430T00Z_MSC_GDPS_RelativeHumidity_IsbL-0850_LatLon0.15_PT000H.grib2 2026-04-30 03:55 1.3M
20260430T00Z_MSC_GDPS_RelativeHumidity_IsbL-0875_LatLon0.15_PT000H.grib2 2026-04-30 03:55 1.3M
20260430T00Z_MSC_GDPS_RelativeHumidity_IsbL-0900_LatLon0.15_PT000H.grib2 2026-04-30 03:55 1.3M
20260430T00Z_MSC_GDPS_RelativeHumidity_IsbL-0925_LatLon0.15_PT000H.grib2 2026-04-30 03:55 1.2M
20260430T00Z_MSC_GDPS_RelativeHumidity_IsbL-0950_LatLon0.15_PT000H.grib2 2026-04-30 03:55 1.2M
20260430T00Z_MSC_GDPS_RelativeHumidity_IsbL-0970_LatLon0.15_PT000H.grib2 2026-04-30 03:55 1.2M
20260430T00Z_MSC_GDPS_RelativeHumidity_IsbL-0985_LatLon0.15_PT000H.grib2 2026-04-30 03:55 1.1M
20260430T00Z_MSC_GDPS_RelativeHumidity_IsbL-1000_LatLon0.15_PT000H.grib2 2026-04-30 03:55 1.1M
20260430T00Z_MSC_GDPS_RelativeHumidity_IsbL-1015_LatLon0.15_PT000H.grib2 2026-04-30 03:55 1.1M
20260430T00Z_MSC_GDPS_RelativeVorticity_IsbL-0200_LatLon0.15_PT000H.grib2 2026-04-30 03:55 1.2M
20260430T00Z_MSC_GDPS_RelativeVorticity_IsbL-0250_LatLon0.15_PT000H.grib2 2026-04-30 03:55 1.3M
20260430T00Z_MSC_GDPS_RelativeVorticity_IsbL-0500_LatLon0.15_PT000H.grib2 2026-04-30 03:55 1.5M
20260430T00Z_MSC_GDPS_RelativeVorticity_IsbL-0700_LatLon0.15_PT000H.grib2 2026-04-30 03:55 1.3M
20260430T00Z_MSC_GDPS_RelativeVorticity_IsbL-0850_LatLon0.15_PT000H.grib2 2026-04-30 03:55 1.6M
20260430T00Z_MSC_GDPS_Runoff-Accum_Sfc_LatLon0.15_PT000H.grib2 2026-04-30 03:55 181
20260430T00Z_MSC_GDPS_SeaIceFraction_Sfc_LatLon0.15_PT000H.grib2 2026-04-30 03:55 258K
20260430T00Z_MSC_GDPS_SeaWaterTemp_Sfc_LatLon0.15_PT000H.grib2 2026-04-30 03:55 903K
20260430T00Z_MSC_GDPS_SensibleHeatNetFlux_Sfc_LatLon0.15_PT000H.grib2 2026-04-30 03:55 631K
20260430T00Z_MSC_GDPS_ShowalterIndex_IsbL-0500_LatLon0.15_PT000H.grib2 2026-04-30 03:55 6.2M
20260430T00Z_MSC_GDPS_SnowDensity_Sfc_LatLon0.15_PT000H.grib2 2026-04-30 03:55 247K
20260430T00Z_MSC_GDPS_SnowDepth_Sfc_LatLon0.15_PT000H.grib2 2026-04-30 03:55 1.7M
20260430T00Z_MSC_GDPS_SoilTemp_DBS-0to10cm_LatLon0.15_PT000H.grib2 2026-04-30 03:55 488K
20260430T00Z_MSC_GDPS_SoilTemp_Sfc_LatLon0.15_PT000H.grib2 2026-04-30 03:55 538K
20260430T00Z_MSC_GDPS_SoilVolumetricIceContent_Sfc_LatLon0.15_PT000H.grib2 2026-04-30 03:55 208K
20260430T00Z_MSC_GDPS_SoilVolumetricWaterContent_DBS-0to10cm_LatLon0.15_PT000H.grib2 2026-04-30 03:55 519K
20260430T00Z_MSC_GDPS_SoilVolumetricWaterContent_DBS-0to1cm_LatLon0.15_PT000H.grib2 2026-04-30 03:55 552K
20260430T00Z_MSC_GDPS_SpecificHumidity_AGL-120m_LatLon0.15_PT000H.grib2 2026-04-30 03:55 1.1M
20260430T00Z_MSC_GDPS_SpecificHumidity_AGL-2m_LatLon0.15_PT000H.grib2 2026-04-30 03:55 1.3M
20260430T00Z_MSC_GDPS_SpecificHumidity_AGL-40m_LatLon0.15_PT000H.grib2 2026-04-30 03:55 1.1M
20260430T00Z_MSC_GDPS_SpecificHumidity_AGL-80m_LatLon0.15_PT000H.grib2 2026-04-30 03:55 1.1M
20260430T00Z_MSC_GDPS_SpecificHumidity_IsbL-0001_LatLon0.15_PT000H.grib2 2026-04-30 03:55 1.4M
20260430T00Z_MSC_GDPS_SpecificHumidity_IsbL-0005_LatLon0.15_PT000H.grib2 2026-04-30 03:55 1.3M
20260430T00Z_MSC_GDPS_SpecificHumidity_IsbL-0010_LatLon0.15_PT000H.grib2 2026-04-30 03:55 1.4M
20260430T00Z_MSC_GDPS_SpecificHumidity_IsbL-0020_LatLon0.15_PT000H.grib2 2026-04-30 03:55 1.4M
20260430T00Z_MSC_GDPS_SpecificHumidity_IsbL-0030_LatLon0.15_PT000H.grib2 2026-04-30 03:55 1.4M
20260430T00Z_MSC_GDPS_SpecificHumidity_IsbL-0050_LatLon0.15_PT000H.grib2 2026-04-30 03:55 1.7M
20260430T00Z_MSC_GDPS_SpecificHumidity_IsbL-0100_LatLon0.15_PT000H.grib2 2026-04-30 03:55 1.1M
20260430T00Z_MSC_GDPS_SpecificHumidity_IsbL-0150_LatLon0.15_PT000H.grib2 2026-04-30 03:55 1.2M
20260430T00Z_MSC_GDPS_SpecificHumidity_IsbL-0175_LatLon0.15_PT000H.grib2 2026-04-30 03:55 1.3M
20260430T00Z_MSC_GDPS_SpecificHumidity_IsbL-0200_LatLon0.15_PT000H.grib2 2026-04-30 03:55 1.3M
20260430T00Z_MSC_GDPS_SpecificHumidity_IsbL-0225_LatLon0.15_PT000H.grib2 2026-04-30 03:55 1.3M
20260430T00Z_MSC_GDPS_SpecificHumidity_IsbL-0250_LatLon0.15_PT000H.grib2 2026-04-30 03:55 1.4M
20260430T00Z_MSC_GDPS_SpecificHumidity_IsbL-0275_LatLon0.15_PT000H.grib2 2026-04-30 03:55 1.3M
20260430T00Z_MSC_GDPS_SpecificHumidity_IsbL-0300_LatLon0.15_PT000H.grib2 2026-04-30 03:55 1.2M
20260430T00Z_MSC_GDPS_SpecificHumidity_IsbL-0350_LatLon0.15_PT000H.grib2 2026-04-30 03:55 1.2M
20260430T00Z_MSC_GDPS_SpecificHumidity_IsbL-0400_LatLon0.15_PT000H.grib2 2026-04-30 03:55 1.5M
20260430T00Z_MSC_GDPS_SpecificHumidity_IsbL-0450_LatLon0.15_PT000H.grib2 2026-04-30 03:55 1.6M
20260430T00Z_MSC_GDPS_SpecificHumidity_IsbL-0500_LatLon0.15_PT000H.grib2 2026-04-30 03:55 1.4M
20260430T00Z_MSC_GDPS_SpecificHumidity_IsbL-0550_LatLon0.15_PT000H.grib2 2026-04-30 03:55 1.6M
20260430T00Z_MSC_GDPS_SpecificHumidity_IsbL-0600_LatLon0.15_PT000H.grib2 2026-04-30 03:55 1.7M
20260430T00Z_MSC_GDPS_SpecificHumidity_IsbL-0650_LatLon0.15_PT000H.grib2 2026-04-30 03:55 1.5M
20260430T00Z_MSC_GDPS_SpecificHumidity_IsbL-0700_LatLon0.15_PT000H.grib2 2026-04-30 03:55 1.6M
20260430T00Z_MSC_GDPS_SpecificHumidity_IsbL-0750_LatLon0.15_PT000H.grib2 2026-04-30 03:55 1.7M
20260430T00Z_MSC_GDPS_SpecificHumidity_IsbL-0800_LatLon0.15_PT000H.grib2 2026-04-30 03:55 1.8M
20260430T00Z_MSC_GDPS_SpecificHumidity_IsbL-0850_LatLon0.15_PT000H.grib2 2026-04-30 03:55 1.9M
20260430T00Z_MSC_GDPS_SpecificHumidity_IsbL-0875_LatLon0.15_PT000H.grib2 2026-04-30 03:55 1.9M
20260430T00Z_MSC_GDPS_SpecificHumidity_IsbL-0900_LatLon0.15_PT000H.grib2 2026-04-30 03:55 1.9M
20260430T00Z_MSC_GDPS_SpecificHumidity_IsbL-0925_LatLon0.15_PT000H.grib2 2026-04-30 03:55 1.6M
20260430T00Z_MSC_GDPS_SpecificHumidity_IsbL-0950_LatLon0.15_PT000H.grib2 2026-04-30 03:55 1.5M
20260430T00Z_MSC_GDPS_SpecificHumidity_IsbL-0970_LatLon0.15_PT000H.grib2 2026-04-30 03:55 1.5M
20260430T00Z_MSC_GDPS_SpecificHumidity_IsbL-0985_LatLon0.15_PT000H.grib2 2026-04-30 03:55 1.5M
20260430T00Z_MSC_GDPS_SpecificHumidity_IsbL-1000_LatLon0.15_PT000H.grib2 2026-04-30 03:55 1.5M
20260430T00Z_MSC_GDPS_SpecificHumidity_IsbL-1015_LatLon0.15_PT000H.grib2 2026-04-30 03:55 1.5M
20260430T00Z_MSC_GDPS_SpecificHumidity_Sfc_LatLon0.15_PT000H.grib2 2026-04-30 03:55 613K
20260430T00Z_MSC_GDPS_Thickness_IsbL-0850to0700_LatLon0.15_PT000H.grib2 2026-04-30 03:55 473K
20260430T00Z_MSC_GDPS_Thickness_IsbL-1000to0500_LatLon0.15_PT000H.grib2 2026-04-30 03:55 376K
20260430T00Z_MSC_GDPS_Thickness_IsbL-1000to0850_LatLon0.15_PT000H.grib2 2026-04-30 03:55 487K
20260430T00Z_MSC_GDPS_TotalCloudCover_Sfc_LatLon0.15_PT000H.grib2 2026-04-30 03:55 778K
20260430T00Z_MSC_GDPS_TotalTotalsIndex_Sfc_LatLon0.15_PT000H.grib2 2026-04-30 03:55 6.2M
20260430T00Z_MSC_GDPS_UVIndex-ClearSky_Sfc_LatLon0.15_PT000H.grib2 2026-04-30 04:49 1.0M
20260430T00Z_MSC_GDPS_UVIndex_Sfc_LatLon0.15_PT000H.grib2 2026-04-30 04:49 1.4M
20260430T00Z_MSC_GDPS_UpwardLongwaveRadiationFlux_NTAtm_LatLon0.15_PT000H.grib2 2026-04-30 03:55 1.1M
20260430T00Z_MSC_GDPS_VerticalVelocity_IsbL-0200_LatLon0.15_PT000H.grib2 2026-04-30 03:55 1.1M
20260430T00Z_MSC_GDPS_VerticalVelocity_IsbL-0250_LatLon0.15_PT000H.grib2 2026-04-30 03:55 1.3M
20260430T00Z_MSC_GDPS_VerticalVelocity_IsbL-0500_LatLon0.15_PT000H.grib2 2026-04-30 03:55 1.0M
20260430T00Z_MSC_GDPS_VerticalVelocity_IsbL-0600_LatLon0.15_PT000H.grib2 2026-04-30 03:55 1.1M
20260430T00Z_MSC_GDPS_VerticalVelocity_IsbL-0700_LatLon0.15_PT000H.grib2 2026-04-30 03:55 1.1M
20260430T00Z_MSC_GDPS_VerticalVelocity_IsbL-0850_LatLon0.15_PT000H.grib2 2026-04-30 03:55 1.3M
20260430T00Z_MSC_GDPS_WindChill_Sfc_LatLon0.15_PT000H.grib2 2026-04-30 03:55 5.5M
20260430T00Z_MSC_GDPS_WindDir_AGL-10m_LatLon0.15_PT000H.grib2 2026-04-30 03:55 1.4M
20260430T00Z_MSC_GDPS_WindDir_AGL-120m_LatLon0.15_PT000H.grib2 2026-04-30 03:55 1.4M
20260430T00Z_MSC_GDPS_WindDir_AGL-40m_LatLon0.15_PT000H.grib2 2026-04-30 03:55 1.4M
20260430T00Z_MSC_GDPS_WindDir_AGL-80m_LatLon0.15_PT000H.grib2 2026-04-30 03:55 1.4M
20260430T00Z_MSC_GDPS_WindDir_IsbL-0001_LatLon0.15_PT000H.grib2 2026-04-30 03:55 697K
20260430T00Z_MSC_GDPS_WindDir_IsbL-0005_LatLon0.15_PT000H.grib2 2026-04-30 03:55 806K
20260430T00Z_MSC_GDPS_WindDir_IsbL-0010_LatLon0.15_PT000H.grib2 2026-04-30 03:55 861K
20260430T00Z_MSC_GDPS_WindDir_IsbL-0020_LatLon0.15_PT000H.grib2 2026-04-30 03:55 961K
20260430T00Z_MSC_GDPS_WindDir_IsbL-0030_LatLon0.15_PT000H.grib2 2026-04-30 03:55 949K
20260430T00Z_MSC_GDPS_WindDir_IsbL-0050_LatLon0.15_PT000H.grib2 2026-04-30 03:55 958K
20260430T00Z_MSC_GDPS_WindDir_IsbL-0100_LatLon0.15_PT000H.grib2 2026-04-30 03:55 1.0M
20260430T00Z_MSC_GDPS_WindDir_IsbL-0150_LatLon0.15_PT000H.grib2 2026-04-30 03:55 1.0M
20260430T00Z_MSC_GDPS_WindDir_IsbL-0175_LatLon0.15_PT000H.grib2 2026-04-30 03:55 1.1M
20260430T00Z_MSC_GDPS_WindDir_IsbL-0200_LatLon0.15_PT000H.grib2 2026-04-30 03:55 1.1M
20260430T00Z_MSC_GDPS_WindDir_IsbL-0225_LatLon0.15_PT000H.grib2 2026-04-30 03:55 1.1M
20260430T00Z_MSC_GDPS_WindDir_IsbL-0250_LatLon0.15_PT000H.grib2 2026-04-30 03:55 1.1M
20260430T00Z_MSC_GDPS_WindDir_IsbL-0275_LatLon0.15_PT000H.grib2 2026-04-30 03:55 1.2M
20260430T00Z_MSC_GDPS_WindDir_IsbL-0300_LatLon0.15_PT000H.grib2 2026-04-30 03:55 1.2M
20260430T00Z_MSC_GDPS_WindDir_IsbL-0350_LatLon0.15_PT000H.grib2 2026-04-30 03:55 1.2M
20260430T00Z_MSC_GDPS_WindDir_IsbL-0400_LatLon0.15_PT000H.grib2 2026-04-30 03:55 1.3M
20260430T00Z_MSC_GDPS_WindDir_IsbL-0450_LatLon0.15_PT000H.grib2 2026-04-30 03:55 1.3M
20260430T00Z_MSC_GDPS_WindDir_IsbL-0500_LatLon0.15_PT000H.grib2 2026-04-30 03:55 1.3M
20260430T00Z_MSC_GDPS_WindDir_IsbL-0550_LatLon0.15_PT000H.grib2 2026-04-30 03:55 1.4M
20260430T00Z_MSC_GDPS_WindDir_IsbL-0600_LatLon0.15_PT000H.grib2 2026-04-30 03:55 1.5M
20260430T00Z_MSC_GDPS_WindDir_IsbL-0650_LatLon0.15_PT000H.grib2 2026-04-30 03:55 1.5M
20260430T00Z_MSC_GDPS_WindDir_IsbL-0700_LatLon0.15_PT000H.grib2 2026-04-30 03:55 1.6M
20260430T00Z_MSC_GDPS_WindDir_IsbL-0750_LatLon0.15_PT000H.grib2 2026-04-30 03:55 1.7M
20260430T00Z_MSC_GDPS_WindDir_IsbL-0800_LatLon0.15_PT000H.grib2 2026-04-30 03:55 1.8M
20260430T00Z_MSC_GDPS_WindDir_IsbL-0850_LatLon0.15_PT000H.grib2 2026-04-30 03:55 1.9M
20260430T00Z_MSC_GDPS_WindDir_IsbL-0875_LatLon0.15_PT000H.grib2 2026-04-30 03:55 2.0M
20260430T00Z_MSC_GDPS_WindDir_IsbL-0900_LatLon0.15_PT000H.grib2 2026-04-30 03:55 2.0M
20260430T00Z_MSC_GDPS_WindDir_IsbL-0925_LatLon0.15_PT000H.grib2 2026-04-30 03:55 2.0M
20260430T00Z_MSC_GDPS_WindDir_IsbL-0950_LatLon0.15_PT000H.grib2 2026-04-30 03:55 2.0M
20260430T00Z_MSC_GDPS_WindDir_IsbL-0970_LatLon0.15_PT000H.grib2 2026-04-30 03:55 2.0M
20260430T00Z_MSC_GDPS_WindDir_IsbL-0985_LatLon0.15_PT000H.grib2 2026-04-30 03:55 2.1M
20260430T00Z_MSC_GDPS_WindDir_IsbL-1000_LatLon0.15_PT000H.grib2 2026-04-30 03:55 2.1M
20260430T00Z_MSC_GDPS_WindDir_IsbL-1015_LatLon0.15_PT000H.grib2 2026-04-30 03:55 2.1M
20260430T00Z_MSC_GDPS_WindGust-Max_AGL-10m_LatLon0.15_PT000H.grib2 2026-04-30 03:55 2.0M
20260430T00Z_MSC_GDPS_WindGust-Min_AGL-10m_LatLon0.15_PT000H.grib2 2026-04-30 03:55 2.1M
20260430T00Z_MSC_GDPS_WindGust_AGL-10m_LatLon0.15_PT000H.grib2 2026-04-30 03:55 2.1M
20260430T00Z_MSC_GDPS_WindSpeed_AGL-10m_LatLon0.15_PT000H.grib2 2026-04-30 03:55 1.1M
20260430T00Z_MSC_GDPS_WindSpeed_AGL-120m_LatLon0.15_PT000H.grib2 2026-04-30 03:55 1.2M
20260430T00Z_MSC_GDPS_WindSpeed_AGL-40m_LatLon0.15_PT000H.grib2 2026-04-30 03:55 1.2M
20260430T00Z_MSC_GDPS_WindSpeed_AGL-80m_LatLon0.15_PT000H.grib2 2026-04-30 03:55 1.2M
20260430T00Z_MSC_GDPS_WindSpeed_IsbL-0001_LatLon0.15_PT000H.grib2 2026-04-30 03:55 651K
20260430T00Z_MSC_GDPS_WindSpeed_IsbL-0005_LatLon0.15_PT000H.grib2 2026-04-30 03:55 705K
20260430T00Z_MSC_GDPS_WindSpeed_IsbL-0010_LatLon0.15_PT000H.grib2 2026-04-30 03:55 641K
20260430T00Z_MSC_GDPS_WindSpeed_IsbL-0020_LatLon0.15_PT000H.grib2 2026-04-30 03:55 676K
20260430T00Z_MSC_GDPS_WindSpeed_IsbL-0030_LatLon0.15_PT000H.grib2 2026-04-30 03:55 878K
20260430T00Z_MSC_GDPS_WindSpeed_IsbL-0050_LatLon0.15_PT000H.grib2 2026-04-30 03:55 923K
20260430T00Z_MSC_GDPS_WindSpeed_IsbL-0100_LatLon0.15_PT000H.grib2 2026-04-30 03:55 1.1M
20260430T00Z_MSC_GDPS_WindSpeed_IsbL-0150_LatLon0.15_PT000H.grib2 2026-04-30 03:55 1.0M
20260430T00Z_MSC_GDPS_WindSpeed_IsbL-0175_LatLon0.15_PT000H.grib2 2026-04-30 03:55 1.0M
20260430T00Z_MSC_GDPS_WindSpeed_IsbL-0200_LatLon0.15_PT000H.grib2 2026-04-30 03:55 1.1M
20260430T00Z_MSC_GDPS_WindSpeed_IsbL-0225_LatLon0.15_PT000H.grib2 2026-04-30 03:55 1.1M
20260430T00Z_MSC_GDPS_WindSpeed_IsbL-0250_LatLon0.15_PT000H.grib2 2026-04-30 03:55 1.1M
20260430T00Z_MSC_GDPS_WindSpeed_IsbL-0275_LatLon0.15_PT000H.grib2 2026-04-30 03:55 1.1M
20260430T00Z_MSC_GDPS_WindSpeed_IsbL-0300_LatLon0.15_PT000H.grib2 2026-04-30 03:55 1.1M
20260430T00Z_MSC_GDPS_WindSpeed_IsbL-0350_LatLon0.15_PT000H.grib2 2026-04-30 03:55 1.1M
20260430T00Z_MSC_GDPS_WindSpeed_IsbL-0400_LatLon0.15_PT000H.grib2 2026-04-30 03:55 1.1M
20260430T00Z_MSC_GDPS_WindSpeed_IsbL-0450_LatLon0.15_PT000H.grib2 2026-04-30 03:55 1.1M
20260430T00Z_MSC_GDPS_WindSpeed_IsbL-0500_LatLon0.15_PT000H.grib2 2026-04-30 03:55 1.1M
20260430T00Z_MSC_GDPS_WindSpeed_IsbL-0550_LatLon0.15_PT000H.grib2 2026-04-30 03:55 1.1M
20260430T00Z_MSC_GDPS_WindSpeed_IsbL-0600_LatLon0.15_PT000H.grib2 2026-04-30 03:55 1.1M
20260430T00Z_MSC_GDPS_WindSpeed_IsbL-0650_LatLon0.15_PT000H.grib2 2026-04-30 03:55 1.5M
20260430T00Z_MSC_GDPS_WindSpeed_IsbL-0700_LatLon0.15_PT000H.grib2 2026-04-30 03:55 1.5M
20260430T00Z_MSC_GDPS_WindSpeed_IsbL-0750_LatLon0.15_PT000H.grib2 2026-04-30 03:55 1.6M
20260430T00Z_MSC_GDPS_WindSpeed_IsbL-0800_LatLon0.15_PT000H.grib2 2026-04-30 03:55 1.8M
20260430T00Z_MSC_GDPS_WindSpeed_IsbL-0850_LatLon0.15_PT000H.grib2 2026-04-30 03:55 1.7M
20260430T00Z_MSC_GDPS_WindSpeed_IsbL-0875_LatLon0.15_PT000H.grib2 2026-04-30 03:55 1.8M
20260430T00Z_MSC_GDPS_WindSpeed_IsbL-0900_LatLon0.15_PT000H.grib2 2026-04-30 03:55 1.8M
20260430T00Z_MSC_GDPS_WindSpeed_IsbL-0925_LatLon0.15_PT000H.grib2 2026-04-30 03:55 1.8M
20260430T00Z_MSC_GDPS_WindSpeed_IsbL-0950_LatLon0.15_PT000H.grib2 2026-04-30 03:55 1.9M
20260430T00Z_MSC_GDPS_WindSpeed_IsbL-0970_LatLon0.15_PT000H.grib2 2026-04-30 03:55 1.9M
20260430T00Z_MSC_GDPS_WindSpeed_IsbL-0985_LatLon0.15_PT000H.grib2 2026-04-30 03:55 1.9M
20260430T00Z_MSC_GDPS_WindSpeed_IsbL-1000_LatLon0.15_PT000H.grib2 2026-04-30 03:55 1.8M
20260430T00Z_MSC_GDPS_WindSpeed_IsbL-1015_LatLon0.15_PT000H.grib2 2026-04-30 03:55 1.8M
20260430T00Z_MSC_GDPS_WindU_AGL-10m_LatLon0.15_PT000H.grib2 2026-04-30 03:55 1.3M
20260430T00Z_MSC_GDPS_WindU_AGL-120m_LatLon0.15_PT000H.grib2 2026-04-30 03:55 1.0M
20260430T00Z_MSC_GDPS_WindU_AGL-40m_LatLon0.15_PT000H.grib2 2026-04-30 03:55 960K
20260430T00Z_MSC_GDPS_WindU_AGL-80m_LatLon0.15_PT000H.grib2 2026-04-30 03:55 970K
20260430T00Z_MSC_GDPS_WindU_IsbL-0001_LatLon0.15_PT000H.grib2 2026-04-30 03:55 506K
20260430T00Z_MSC_GDPS_WindU_IsbL-0005_LatLon0.15_PT000H.grib2 2026-04-30 03:55 705K
20260430T00Z_MSC_GDPS_WindU_IsbL-0010_LatLon0.15_PT000H.grib2 2026-04-30 03:55 716K
20260430T00Z_MSC_GDPS_WindU_IsbL-0020_LatLon0.15_PT000H.grib2 2026-04-30 03:55 744K
20260430T00Z_MSC_GDPS_WindU_IsbL-0030_LatLon0.15_PT000H.grib2 2026-04-30 03:55 751K
20260430T00Z_MSC_GDPS_WindU_IsbL-0050_LatLon0.15_PT000H.grib2 2026-04-30 03:55 782K
20260430T00Z_MSC_GDPS_WindU_IsbL-0100_LatLon0.15_PT000H.grib2 2026-04-30 03:55 925K
20260430T00Z_MSC_GDPS_WindU_IsbL-0150_LatLon0.15_PT000H.grib2 2026-04-30 03:55 1.0M
20260430T00Z_MSC_GDPS_WindU_IsbL-0175_LatLon0.15_PT000H.grib2 2026-04-30 03:55 822K
20260430T00Z_MSC_GDPS_WindU_IsbL-0200_LatLon0.15_PT000H.grib2 2026-04-30 03:55 848K
20260430T00Z_MSC_GDPS_WindU_IsbL-0225_LatLon0.15_PT000H.grib2 2026-04-30 03:55 858K
20260430T00Z_MSC_GDPS_WindU_IsbL-0250_LatLon0.15_PT000H.grib2 2026-04-30 03:55 859K
20260430T00Z_MSC_GDPS_WindU_IsbL-0275_LatLon0.15_PT000H.grib2 2026-04-30 03:55 888K
20260430T00Z_MSC_GDPS_WindU_IsbL-0300_LatLon0.15_PT000H.grib2 2026-04-30 03:55 879K
20260430T00Z_MSC_GDPS_WindU_IsbL-0350_LatLon0.15_PT000H.grib2 2026-04-30 03:55 897K
20260430T00Z_MSC_GDPS_WindU_IsbL-0400_LatLon0.15_PT000H.grib2 2026-04-30 03:55 900K
20260430T00Z_MSC_GDPS_WindU_IsbL-0450_LatLon0.15_PT000H.grib2 2026-04-30 03:55 904K
20260430T00Z_MSC_GDPS_WindU_IsbL-0500_LatLon0.15_PT000H.grib2 2026-04-30 03:55 1.1M
20260430T00Z_MSC_GDPS_WindU_IsbL-0550_LatLon0.15_PT000H.grib2 2026-04-30 03:55 1.1M
20260430T00Z_MSC_GDPS_WindU_IsbL-0600_LatLon0.15_PT000H.grib2 2026-04-30 03:55 1.2M
20260430T00Z_MSC_GDPS_WindU_IsbL-0650_LatLon0.15_PT000H.grib2 2026-04-30 03:55 1.2M
20260430T00Z_MSC_GDPS_WindU_IsbL-0700_LatLon0.15_PT000H.grib2 2026-04-30 03:55 1.2M
20260430T00Z_MSC_GDPS_WindU_IsbL-0750_LatLon0.15_PT000H.grib2 2026-04-30 03:55 1.3M
20260430T00Z_MSC_GDPS_WindU_IsbL-0800_LatLon0.15_PT000H.grib2 2026-04-30 03:55 1.4M
20260430T00Z_MSC_GDPS_WindU_IsbL-0850_LatLon0.15_PT000H.grib2 2026-04-30 03:55 1.4M
20260430T00Z_MSC_GDPS_WindU_IsbL-0875_LatLon0.15_PT000H.grib2 2026-04-30 03:55 1.5M
20260430T00Z_MSC_GDPS_WindU_IsbL-0900_LatLon0.15_PT000H.grib2 2026-04-30 03:55 1.5M
20260430T00Z_MSC_GDPS_WindU_IsbL-0925_LatLon0.15_PT000H.grib2 2026-04-30 03:55 1.5M
20260430T00Z_MSC_GDPS_WindU_IsbL-0950_LatLon0.15_PT000H.grib2 2026-04-30 03:55 1.4M
20260430T00Z_MSC_GDPS_WindU_IsbL-0970_LatLon0.15_PT000H.grib2 2026-04-30 03:55 1.4M
20260430T00Z_MSC_GDPS_WindU_IsbL-0985_LatLon0.15_PT000H.grib2 2026-04-30 03:55 1.4M
20260430T00Z_MSC_GDPS_WindU_IsbL-1000_LatLon0.15_PT000H.grib2 2026-04-30 03:55 1.4M
20260430T00Z_MSC_GDPS_WindU_IsbL-1015_LatLon0.15_PT000H.grib2 2026-04-30 03:55 1.4M
20260430T00Z_MSC_GDPS_WindV_AGL-10m_LatLon0.15_PT000H.grib2 2026-04-30 03:55 1.6M
20260430T00Z_MSC_GDPS_WindV_AGL-120m_LatLon0.15_PT000H.grib2 2026-04-30 03:55 1.0M
20260430T00Z_MSC_GDPS_WindV_AGL-40m_LatLon0.15_PT000H.grib2 2026-04-30 03:55 963K
20260430T00Z_MSC_GDPS_WindV_AGL-80m_LatLon0.15_PT000H.grib2 2026-04-30 03:55 973K
20260430T00Z_MSC_GDPS_WindV_IsbL-0001_LatLon0.15_PT000H.grib2 2026-04-30 03:55 718K
20260430T00Z_MSC_GDPS_WindV_IsbL-0005_LatLon0.15_PT000H.grib2 2026-04-30 03:55 871K
20260430T00Z_MSC_GDPS_WindV_IsbL-0010_LatLon0.15_PT000H.grib2 2026-04-30 03:55 809K
20260430T00Z_MSC_GDPS_WindV_IsbL-0020_LatLon0.15_PT000H.grib2 2026-04-30 03:55 862K
20260430T00Z_MSC_GDPS_WindV_IsbL-0030_LatLon0.15_PT000H.grib2 2026-04-30 03:55 864K
20260430T00Z_MSC_GDPS_WindV_IsbL-0050_LatLon0.15_PT000H.grib2 2026-04-30 03:55 916K
20260430T00Z_MSC_GDPS_WindV_IsbL-0100_LatLon0.15_PT000H.grib2 2026-04-30 03:55 1.1M
20260430T00Z_MSC_GDPS_WindV_IsbL-0150_LatLon0.15_PT000H.grib2 2026-04-30 03:55 1.0M
20260430T00Z_MSC_GDPS_WindV_IsbL-0175_LatLon0.15_PT000H.grib2 2026-04-30 03:55 1.0M
20260430T00Z_MSC_GDPS_WindV_IsbL-0200_LatLon0.15_PT000H.grib2 2026-04-30 03:55 849K
20260430T00Z_MSC_GDPS_WindV_IsbL-0225_LatLon0.15_PT000H.grib2 2026-04-30 03:55 915K
20260430T00Z_MSC_GDPS_WindV_IsbL-0250_LatLon0.15_PT000H.grib2 2026-04-30 03:55 916K
20260430T00Z_MSC_GDPS_WindV_IsbL-0275_LatLon0.15_PT000H.grib2 2026-04-30 03:55 941K
20260430T00Z_MSC_GDPS_WindV_IsbL-0300_LatLon0.15_PT000H.grib2 2026-04-30 03:55 932K
20260430T00Z_MSC_GDPS_WindV_IsbL-0350_LatLon0.15_PT000H.grib2 2026-04-30 03:55 889K
20260430T00Z_MSC_GDPS_WindV_IsbL-0400_LatLon0.15_PT000H.grib2 2026-04-30 03:55 891K
20260430T00Z_MSC_GDPS_WindV_IsbL-0450_LatLon0.15_PT000H.grib2 2026-04-30 03:55 1.1M
20260430T00Z_MSC_GDPS_WindV_IsbL-0500_LatLon0.15_PT000H.grib2 2026-04-30 03:55 1.1M
20260430T00Z_MSC_GDPS_WindV_IsbL-0550_LatLon0.15_PT000H.grib2 2026-04-30 03:55 1.1M
20260430T00Z_MSC_GDPS_WindV_IsbL-0600_LatLon0.15_PT000H.grib2 2026-04-30 03:55 1.1M
20260430T00Z_MSC_GDPS_WindV_IsbL-0650_LatLon0.15_PT000H.grib2 2026-04-30 03:55 1.2M
20260430T00Z_MSC_GDPS_WindV_IsbL-0700_LatLon0.15_PT000H.grib2 2026-04-30 03:55 1.2M
20260430T00Z_MSC_GDPS_WindV_IsbL-0750_LatLon0.15_PT000H.grib2 2026-04-30 03:55 1.2M
20260430T00Z_MSC_GDPS_WindV_IsbL-0800_LatLon0.15_PT000H.grib2 2026-04-30 03:55 1.3M
20260430T00Z_MSC_GDPS_WindV_IsbL-0850_LatLon0.15_PT000H.grib2 2026-04-30 03:55 1.4M
20260430T00Z_MSC_GDPS_WindV_IsbL-0875_LatLon0.15_PT000H.grib2 2026-04-30 03:55 1.4M
20260430T00Z_MSC_GDPS_WindV_IsbL-0900_LatLon0.15_PT000H.grib2 2026-04-30 03:55 1.5M
20260430T00Z_MSC_GDPS_WindV_IsbL-0925_LatLon0.15_PT000H.grib2 2026-04-30 03:55 1.4M
20260430T00Z_MSC_GDPS_WindV_IsbL-0950_LatLon0.15_PT000H.grib2 2026-04-30 03:55 1.4M
20260430T00Z_MSC_GDPS_WindV_IsbL-0970_LatLon0.15_PT000H.grib2 2026-04-30 03:55 1.4M
20260430T00Z_MSC_GDPS_WindV_IsbL-0985_LatLon0.15_PT000H.grib2 2026-04-30 03:55 1.4M
20260430T00Z_MSC_GDPS_WindV_IsbL-1000_LatLon0.15_PT000H.grib2 2026-04-30 03:55 1.4M
20260430T00Z_MSC_GDPS_WindV_IsbL-1015_LatLon0.15_PT000H.grib2 2026-04-30 03:55 1.7M